{"data":{"norad_id":61967,"epoch":"2026-09-21T22:55:27.360192Z","epoch_age_seconds":59874,"freshness":"FRESH","line1":"1 61967U 24210J   26264.95517778  .00014561  00000+0  53741-3 0  9996","line2":"2 61967  42.9979 144.5247 0000285 180.6440 179.4411 15.27591518104877","mean_motion":15.27591518,"eccentricity":2.85e-5,"inclination_deg":42.9979,"raan_deg":144.5247,"arg_perigee_deg":180.644,"mean_anomaly_deg":179.4411,"bstar":0.00053741,"rev_number":10487,"period_min":94.266037944838,"perigee_km":482.81906439997,"apogee_km":483.21015004158,"semimajor_km":6861.1516072208,"source":"CELESTRAK","updated_at":"2026-09-22T09:00:49.478422Z"}}